Location: Tamazert
(32.6352°N, 5.2072°W)
Time: 04:04:12
(UTC+00:00)

Vanguard 1 Rocket - Pass Details

Date: 14 October 2022
Orbit: 650 x 4225 km, 34.3° (Epoch: 05 December)

Event Time Altitude Azimuth Distance (km) Brightness Sun altitude
Rises 14:50:33 0° 220° (SW) 7,257 13.0 33.5°
Reaches altitude 10° 14:55:04 10° 216° (SW) 6,589 13.1 32.7°
Maximum altitude 15:18:15 56° 144° (SE) 4,682 11.4 28.8°
Drops below altitude 10° 15:41:08 10° 74° (ENE) 6,570 11.3 24.6°
Sets 15:45:34 0° 71° (ENE) 7,244 11.4 23.8°
